THORAD DELTA 1 DEB, 8160

Orbit data source: Space-Track

THORAD DELTA 1 DEB, 8160 is space debris in SSO originally from a launch on Fri, 15 Nov 1974 UTC launched from the Air Force Western Test Range (AFWTR). Debris objects in space refer to the collection of defunct objects orbiting the Earth. Examples of debris include non-operational satellites, rocket bodies, and fragments generated from explosions, collisions, or faulty payload assembly.

Loading next visibility...
THORAD DELTA 1 DEB details
Identifier
8160, 1974-089AA
Orbit
SSO
Last TLE update1 day ago
Origin
Flag of USGSFC (US)
ManufacturerUnknown
MissionSpacecraft
Bus & MotorUnknown
MassUnknown
Launch date (UTC)
1974-11-15 (50 years ago)
Launch vehicleUnknown
Launch site
Air Force Western Test Range (AFWTR)
Object type
Payload
Rocket body
Debris
Shape & HBRUnknown
Radar Cross SectionSmall (<0.1 m²)

Expand to show TLE details & history

TLE from 1 day ago
0 THORAD DELTA 1 DEB
1 08160U 74089AA  24360.31600590 -.00000009  00000-0  19468-3 0  9993
2 08160 101.7542 120.4932 0145549  61.0774 326.7149 12.63486102309806
Epoch: 2024-12-25T07:35Z
Definitive object data (Epoch: 2024-12-25T07:35:02.909Z)
Latitude26.29118°
Longitude-93.4511°
Altitude1,317.251 km
Speed7.244 km/s
True Right ascension07h 38m 29s
True Declination26° 09' 53"
Sunlit
Object was in full shadow at TLE epoch
Visualization TLE readout
Latitude-43.30665°
Longitude82.32637°
Altitude1,534.596 km
Speed7.048 km/s
Apparent Right ascension20h 49m 48s
Apparent Declination-44° 13' 06"
Sunlit
Object is in daylight
Visualization observer readout
Local Sidereal Time10:34:43
Azimuth111.123° ESE
Elevation-70.152°
Doppler factor1
Orbital elements
Apogee altitude1,519.416 km
Perigee altitude1,292.818 km
Semi-major axis7,784.254 km
Eccentricity0.0145549
Inclination101.7542°
RAAN120.4932°
Arg. of periapsis61.0774°
True anomaly325.78548°
Mean anomaly326.7149°
Eccentric anomaly326.25161°
Mean motion3.16022 °/min
BSTAR0.00019468
Orbital period113.92 mins
Loading maneuver chart data...

THORAD DELTA 1 DEB Visibility forecast

Observer location: undefined°, undefined

Span
Click to sort rows by Start time (UTC) header in descending order
Start Az.
Max El. time (UTC)
Max El. Az.
Max El.
End time (UTC)
End Az.
14 mins2024-12-26 20:10:24.360Z36.566° NE2024-12-26 20:17:24.360Z102.49° ESE29.592°2024-12-26 20:24:24.360Z161.635° S
13 mins2024-12-26 22:03:24.360Z2.586° NNE2024-12-26 22:09:24.360Z290.022° WNW37.661°2024-12-26 22:16:24.360Z224.521° SW
13 mins2024-12-27 07:04:24.360Z128.965° SE2024-12-27 07:11:24.360Z56.677° ENE33.827°2024-12-27 07:17:24.360Z357.616° N
12 mins2024-12-27 08:57:24.360Z199.056° SSW2024-12-27 09:03:24.360Z266.834° W31.94°2024-12-27 09:09:24.360Z325.096° NNW
|